Preview of NWS' New Version of Forecast
This preview is not operational and should not be used for support decisions.

Regional Weather Roundup (RWR)

Issued by National Weather Service (NWS)

                            
000
ASUS43 KLSX 201057
RWRMO 

WEATHER SUMMARY FOR MISSOURI
NATIONAL WEATHER SERVICE SPRINGFIELD MO
500 AM CST WED FEB 20 2019

NOTE: "FAIR" INDICATES FEW OR NO CLOUDS BELOW 12,000 FEET WITH NO
       SIGNIFICANT WEATHER AND/OR OBSTRUCTIONS TO VISIBILITY.
       CURRENT SKY AND/OR WEATHER CONDITIONS ARE NOT AVAILABLE FOR
       CHILLICOTHE AND FARMINGTON.

MOZ001>031-035>038-043-044-053-054-201200-
...NORTHERN AND WESTERN MISSOURI...
  
CITY           SKY/WX    TMP DP  RH WIND       PRES   REMARKS
KANSAS CTY INT LGT SNOW  29  27  92 S8        29.77F VSB 1   WCI  21  
LEE'S SUMMIT   CLOUDY    30  30 100 SE6       29.79F FOG     WCI  24  
ST JOSEPH      LGT SNOW  28  28 100 CALM      29.79F VSB 1            
CHILLICOTHE      N/A     30  29  96 SE7       29.82F WCI  23          
     
$$
MOZ066>068-077>081-088>096-101>105-201200-
...SOUTHWEST MISSOURI...
  
CITY           SKY/WX    TMP DP  RH WIND       PRES   REMARKS
SPRINGFIELD    CLOUDY    34  32  92 S7        29.79F FOG     WCI  28  
JOPLIN         CLOUDY    34  34 100 SW8       29.81F FOG     WCI  27  
               
$$
MOZ032>034-039>042-045>050-055>058-069>072-201200-
...CENTRAL MISSOURI...  
  
CITY           SKY/WX    TMP DP  RH WIND       PRES   REMARKS
COLUMBIA       NOT AVBL                                               
JEFFERSON CITY CLOUDY    33  31  92 E5        29.84S FOG     WCI  29  
SEDALIA        CLOUDY    31  31 100 SE9       29.81F FOG     WCI  23  
WARRENSBURG    CLOUDY    32  30  93 E3        29.81S FOG              
               
$$
MOZ051-052-059>065-201200-
...EAST CENTRAL MISSOURI...
  
CITY           SKY/WX    TMP DP  RH WIND       PRES   REMARKS
ST LOUIS INTL  DRIZZLE   33  31  92 E12       29.84F FOG     WCI  24  
                   
$$
MOZ072>076-082>087-097>100-106>115-201200-
...SOUTH CENTRAL AND SOUTHEAST MISSOURI...
  
CITY           SKY/WX    TMP DP  RH WIND       PRES   REMARKS
CAPE GIRARDEAU CLOUDY    39  37  92 NE5       29.83F                  
POPLAR BLUFF   CLOUDY    38  38 100 CALM      29.84S                  
WEST PLAINS    FOG       35  34  96 CALM      29.82R VSB 3/4          
                                       
$$